Find Starlink 30570

NORAD ID: 58095 Int'l Des: 2023-160 Owner: SPXS Country: US Constellation: starlink operational
LEOCIRCULAR

Current View

Loading 3D Globe...

About Starlink 30570

Starlink 30570 (NORAD 58095) is a starlink constellation satellite (v2 mini) launched Oct 18, 2023 by SPXS of US. It operates in LEO, CIRCULAR orbit with a mass of 730.00 kg.

Upcoming Passes

Passes for default location (London). Set your location on the main map for personalized predictions.

Altitude History

Loading altitude history...

Two-Line Element Set

1 58095U 23160W 26237.30326988 -.00001890 00000-0 -59153-4 0 9995
2 58095 43.0019 205.5994 0001644 269.1725 90.8938 15.27584064158730
Epoch: Aug 25, 2026 • Age: 19 hours

Current Status

Altitude 483.0 km
Apogee / Perigee N/A
Velocity 7.63 km/s
Sub-Earth Point -2.08°S, 166.84°W
Launch Date Oct 18, 2023
Age 2.8 years
Type internet

Technical Details

Classification Payload
Mass 730.00 kg
Dry Mass 700.00 kg
Total Mass 730.00 kg
Length 0.30 m
Diameter 4.10 m
Span 29.00 m
Shape Box + pan
Manufacturer SPXS
Bus Type Starlink V2M
Phase Status In Orbit
Owner/State SPXS/US

Most Searched